This demonstration page uses our WeatherBlox Daily Observations layout. Learn more.

Left ArrowRight Arrow

Hourly Observations for January 19, 2020

Temp ( °F °C ) Dew Point ( °F °C ) Humidity (%) Winds ( mph kmh ) Pressure ( in mb ) Visibility ( mi km ) Precip ( " mm )
12:53 am 00:53 Clear 20 -6.7 11 -11.7 68 68 N 7 11 30.50 1033 10 16 0.00 0.00
1:53 am 01:53 Clear 17 -8.3 10 -12.2 74 74 NW 5 7 30.50 1033 10 16 0.00 0.00
2:53 am 02:53 Clear 18 -7.8 7 -13.9 62 62 N 10 17 30.52 1034 10 16 0.00 0.00
3:53 am 03:53 Clear 15 -9.4 7 -13.9 70 70 N 7 11 30.54 1034 10 16 0.00 0.00
4:53 am 04:53 Clear 14 -10 5 -15 67 67 N 7 11 30.56 1035 10 16 0.00 0.00
5:53 am 05:53 Clear 11 -11.7 3 -16.1 70 70 NNE 9 15 30.58 1036 10 16 0.00 0.00
6:53 am 06:53 Clear 10 -12.2 1 -17.2 67 67 NNE 9 15 30.61 1037 10 16 0.00 0.00
7:53 am 07:53 Clear 9 -12.8 0 -17.8 66 66 N 9 15 30.63 1037 10 16 0.00 0.00
8:53 am 08:53 Sunny 10 -12.2 0 -17.8 63 63 NNE 9 15 30.66 1038 10 16 0.00 0.00
9:53 am 09:53 Sunny 12 -11.1 1 -17.2 61 61 N 10 17 30.67 1039 10 16 0.00 0.00
10:53 am 10:53 Sunny 14 -10 2 -16.7 58 58 N 13 20 30.69 1039 10 16 0.00 0.00
11:53 am 11:53 Sunny 15 -9.4 3 -16.1 59 59 N 10 17 30.69 1039 10 16 0.00 0.00
12:53 pm 12:53 Sunny 16 -8.9 4 -15.6 59 59 NNW 9 15 30.69 1039 10 16 0.00 0.00
1:53 pm 13:53 Sunny 17 -8.3 5 -15 59 59 NNW 9 15 30.66 1038 10 16 0.00 0.00
2:53 pm 14:53 Sunny 19 -7.2 5 -15 54 54 NNW 7 11 30.63 1037 10 16 0.00 0.00
3:53 pm 15:53 Sunny 19 -7.2 7 -13.9 59 59 WNW 6 9 30.63 1037 10 16 0.00 0.00
4:53 pm 16:53 Sunny 19 -7.2 6 -14.4 57 57 WNW 3 6 30.62 1037 10 16 0.00 0.00
5:53 pm 17:53 Clear 16 -8.9 6 -14.4 65 65 NE 3 6 30.64 1038 10 16 0.00 0.00
6:53 pm 18:53 Mostly Clear 15 -9.4 5 -15 64 64 E 3 6 30.65 1038 10 16 0.00 0.00
7:53 pm 19:53 Cloudy 15 -9.4 6 -14.4 67 67 E 3 6 30.66 1038 10 16 0.00 0.00
8:53 pm 20:53 Cloudy 16 -8.9 6 -14.4 65 65 E 7 11 30.65 1038 10 16 0.00 0.00
9:53 pm 21:53 Cloudy 16 -8.9 6 -14.4 65 65 E 3 6 30.65 1038 10 16 0.00 0.00
10:53 pm 22:53 Cloudy 16 -8.9 7 -13.9 67 67 SSE 3 6 30.65 1038 10 16 0.00 0.00
11:53 pm 23:53 Cloudy 15 -9.4 7 -13.9 70 70 SE 6 9 30.65 1038 10 16 0.00 0.00

Powered by AerisWeather